OBJECT M, 61905

Orbit data source: Space-Track

You're viewing an Uncataloged Satellite

Recently launched and/or uncataloged satellites may have evolving metadata. Metadata may include but not limited to: Owner, Maufacturer, Bus, Motor, and Mission.

OBJECT M, 61905 is a Chinese satellite in SSO that was launched on Mon, 11 Nov 2024 UTC via a LIJIAN-1 launch vehicle from the Jiuquan Satellite Launch Center, China (JSC). Unknown objects in Earth's orbit typically refer to objects detected orbiting the Earth but have not yet been identified or cataloged. These objects could be anything from previously untracked satellites, spent rocket stages, debris from satellite collisions, or even natural meteoroids temporarily captured by Earth's gravity.

Loading next visibility...
Identifier
61905, 2024-205M
Orbit
SSO
Last TLE update
8 hours ago
Origin
Flag of CNZHWK/ZXHK (CN / PRC)
Manufacturer
XIOPM/ZXHK
Mission
Operational Commercial Imaging
Bus & Motor
MN100?, Unknown motor
Mass
75 kg wet, 75 kg dry
Launch date (UTC)
2024-11-11 (8 months ago)
Launch vehicle
LIJIAN-1
Launch site
Jiuquan Satellite Launch Center, China (JSC)
Object type
Unknown
Shape & HBR
Box + 2 Pan, 1 m
Radar Cross Section
0.195 m², Medium (>0.1 m² and < 1m²)

Expand to show TLE details & history

TLE from 8 hours ago
0 OBJECT M
1 61905U 24205M   25182.89902900  .00003737  00000-0  20137-3 0  9995
2 61905  97.4511 256.9538 0012406 202.0912 157.9787 15.15346428 35211
Epoch: 2025-07-01T21:34Z
TLE epoch observation values (Epoch: 2025-07-01T21:34:36.105Z)
Latitude
-0.00007°
Longitude
13.1155°
Altitude
530.946 km
Speed
7.593 km/s
True Right ascension
17h 07m 48s
True Declination
0° 00' 00"
Sunlit
Object was in full shadow at epoch
Visualization orbit readout
Latitude
-73.58139°
Longitude
39.61915°
Altitude
545.98 km
Speed
7.588 km/s
Apparent Right ascension
03h 42m 34s
Apparent Declination
-72° 33' 11"
Sunlit
Object is in full shadow
Visualization observer readout
Local Sidereal Time
16:51:39
Azimuth
170.774° S
Elevation
-56.278°
Doppler factor
1
Orbital elements
Apogee altitude
525.455 km
Perigee altitude
508.347 km
Semi-major axis
6,895.038 km
Eccentricity
0.00124
Inclination
97.4511°
RAAN
256.9538°
Arg. of periapsis
202.0912°
True anomaly
Unknown
Mean anomaly
157.9787°
Eccentric anomaly
Unknown
Mean motion
3.79086 °/min
Orbital period
94.97 mins
BSTAR
0.00020137
Loading maneuver chart data...
Loading SW <> Apogee altitude chart data...
Loading historical data...
Loading historical data...
Loading historical data...
Loading historical data...
Loading historical data...
Loading historical data...
Loading historical data...

OBJECT M Visibility forecast

Observer location: undefined°, undefined°

Span
Click to sort rows by Start time (UTC) header in descending order
Start Az.
Max El. time (UTC)
Max El. Az.
Max El.
End time (UTC)
End Az.
6 mins2025-07-02 05:37:07.629Z202.903° SW2025-07-02 05:40:07.629Z256.193° W25.441°2025-07-02 05:43:07.629Z319.639° NNW
4 mins2025-07-02 17:11:07.629Z54.157° ENE2025-07-02 17:13:07.629Z103.023° ESE24.038°2025-07-02 17:15:07.629Z145.278° SSE
|